• Processing (Info)

  • MPEC 2000-R30 : 2000 RF52

    The following Minor Planet Electronic Circular may be linked-to from your own Web pages, but must not otherwise be redistributed electronically.

    A form allowing access to any MPEC is at the bottom of this page.


    Read MPEC 2000-R29 Read MPEC 2000-R31


    M.P.E.C. 2000-R30                                Issued 2000 Sept. 7, 18:15 UT
    
         The Minor Planet Electronic Circulars contain information on unusual
             minor planets and routine data on comets.  They are published
       on behalf of Commission 20 of the International Astronomical Union by the
              Minor Planet Center, Smithsonian Astrophysical Observatory,
                              Cambridge, MA 02138, U.S.A.
    
                 Prepared using the Tamkin Foundation Computer Network
    
                 BMARSDEN@CFA.HARVARD.EDU or GWILLIAMS@CFA.HARVARD.EDU
              URL http://cfa-www.harvard.edu/iau/mpc.html  ISSN 1523-6714
    
                                       2000 RF52
    
    Observations:
         K00R52F* C2000 09 05.26852 23 11 45.00 -08 29 27.0          18.8        704
         K00R52F  C2000 09 05.28177 23 11 52.82 -08 27 01.1          18.3        704
         K00R52F  C2000 09 05.29512 23 12 00.52 -08 24 33.9          18.8        704
         K00R52F  C2000 09 05.30849 23 12 08.34 -08 22 05.8          18.7        704
         K00R52F  C2000 09 05.32167 23 12 15.98 -08 19 39.9          18.5        704
         K00R52F  C2000 09 06.25908 23 22 20.02 -05 24 22.8          18.7        704
         K00R52F  C2000 09 06.26309 23 22 22.41 -05 23 37.3          18.7        704
         K00R52F  C2000 09 06.27214 23 22 27.75 -05 21 54.5          18.2        704
         K00R52F  C2000 09 06.27784 23 22 31.07 -05 20 50.8          19.0        704
         K00R52F  C2000 09 06.28522 23 22 35.42 -05 19 26.2          18.5        704
         K00R52F  C2000 09 06.29211 23 22 39.53 -05 18 08.4          18.7        704
         K00R52F  C2000 09 06.29828 23 22 43.12 -05 16 58.6          18.5        704
         K00R52F  C2000 09 06.30612 23 22 47.82 -05 15 28.7          18.3        704
         K00R52F  C2000 09 06.31958 23 22 55.74 -05 12 55.6          18.2        704
         K00R52F 1C2000 09 07.33353 23 33 51.36 -01 59 36.2                      658
         K00R52F 1C2000 09 07.33465 23 33 52.01 -01 59 22.5                      658
         K00R52F 1C2000 09 07.33556 23 33 52.60 -01 59 11.9                      658
    
    Observer details:
    658 National Research Council of Canada.  Observer D. D. Balam.  1.82-m
        Plaskett reflector + CCD.
    704 Lincoln Laboratory ETS, New Mexico.  Observers M. Blythe, F. Shelly,
        M. Bezpalko, M. Elowitz, R. Huber, L. Manguso.  Measurers J. Stuart,
        R. Sayer, J. B. Evans, H. Viggh.  1.0-m f/2.15 reflector + CCD.
    
    Orbital elements:
    2000 RF52
    Epoch 2000 Aug. 24.0 TT = JDT 2451780.5                 Spahr
    M 354.56630              (2000.0)            P               Q
    n   0.27149109     Peri.    6.84516     +0.98967148     +0.14149478
    a   2.3621039      Node   344.96173     -0.13537154     +0.86962179
    e   0.5508697      Incl.    5.08845     -0.04716892     +0.47300865
    P   3.63           H   23.5           G   0.15
    From 17 observations 2000 Sept. 5-7.
    
    Ephemeris:
    2000 RF52                a,e,i = 2.36, 0.55, 5                   q = 1.0609
    Date    TT    R. A. (2000) Decl.     Delta      r     Elong.  Phase     V
    2000 09 03    22 48.09   -15 04.3    0.060    1.068   172.4     7.1    18.1
    2000 09 08    23 41.00   +00 10.5    0.056    1.063   169.7     9.7    18.0
    2000 09 13    00 33.08   +15 13.0    0.060    1.061   154.6    24.0    18.7
    2000 09 18    01 17.92   +26 14.8    0.071    1.063   143.8    34.0    19.3
    2000 09 23    01 52.84   +33 07.0    0.085    1.068   137.8    39.1    19.9
    2000 09 28    02 18.34   +37 09.3    0.102    1.077   135.4    40.8    20.3
    2000 10 03    02 36.19   +39 28.0    0.120    1.089   135.5    40.1    20.7
    2000 10 08    02 48.20   +40 43.0    0.139    1.105   137.0    38.1    21.0
    2000 10 13    02 55.86   +41 16.5    0.158    1.123   139.6    35.2    21.2
    2000 10 18    03 00.26   +41 21.0    0.179    1.144   142.8    31.7    21.4
    2000 10 23    03 02.27   +41 03.7    0.201    1.168   146.5    28.0    21.6
    2000 10 28    03 02.68   +40 29.3    0.224    1.194   150.3    24.3    21.8
    2000 11 02    03 02.16   +39 42.0    0.249    1.221   154.1    20.8    21.9
    
    Timothy B. Spahr             (C) Copyright 2000 MPC           M.P.E.C. 2000-R30
    

    Read MPEC 2000-R29 Read MPEC 2000-R31


    MPEC number:

    Enter an MPEC number in one of the following forms:

    • 1997-B01 (the full form)
    • J97B01 (the packed version of the full form)
    • B01 (the abbreviated form)